When you browse on this site, cookies collect data to enhance your experience and personalize the content and advertising you see.
Visit our Privacy Policy to learn more. By continuing to use the site, you agree to this use of cookies and data.
  • In Hungary
  • List of Countries
  • For 7 days
  • Water Temperature
  • Satellite Maps
  • Weather Map
  • News
  • Weather Widgets
  • user-avatar
    Login

    Hourly Weather Bycz

    Today, 23 May, Thursday

    Time Temperature Precipitation Wind Pressure Humidity
    00:00 +10°C° 0.1 mm 5 mps 752 mmHg 93%
    01:00 +11°C° 0 mm 4 mps 752 mmHg 93%
    02:00 +10°C° 0.1 mm 4 mps 752 mmHg 93%
    03:00 +10°C° 0.1 mm 4 mps 753 mmHg 92%
    04:00 +10°C° 0.1 mm 4 mps 753 mmHg 92%
    05:00 +10°C° 0.1 mm 4 mps 753 mmHg 92%
    06:00 +10°C° 0.1 mm 4 mps 753 mmHg 91%
    07:00 +10°C° 0.1 mm 4 mps 753 mmHg 90%
    08:00 +10°C° 0 mm 4 mps 754 mmHg 87%
    09:00 +11°C° 0 mm 4 mps 754 mmHg 84%
    10:00 +11°C° 0 mm 4 mps 754 mmHg 81%
    11:00 +13°C° 0 mm 4 mps 754 mmHg 75%
    12:00 +14°C° 0 mm 3 mps 754 mmHg 68%
    13:00 +16°C° 0 mm 3 mps 754 mmHg 61%
    14:00 +17°C° 0 mm 3 mps 754 mmHg 59%
    15:00 +17°C° 0 mm 2 mps 754 mmHg 58%
    16:00 +18°C° 0 mm 2 mps 754 mmHg 56%
    17:00 +17°C° 0 mm 2 mps 754 mmHg 60%
    18:00 +16°C° 0 mm 1 mps 754 mmHg 64%
    19:00 +16°C° 0 mm 1 mps 754 mmHg 68%
    20:00 +14°C° 0 mm 1 mps 754 mmHg 73%
    21:00 +12°C° 0 mm 1 mps 754 mmHg 77%
    22:00 +11°C° 0 mm 1 mps 754 mmHg 81%
    23:00 +10°C° 0 mm 1 mps 754 mmHg 81%

    Tomorrow, 24 May, Friday

    Time Temperature Precipitation Wind Pressure Humidity
    00:00 +9°C° 0 mm 1 mps 754 mmHg 81%
    01:00 +8°C° 0 mm 0 mps 754 mmHg 81%
    02:00 +8°C° 0 mm 0 mps 754 mmHg 80%
    03:00 +8°C° 0 mm 1 mps 754 mmHg 80%
    04:00 +8°C° 0 mm 1 mps 754 mmHg 79%
    05:00 +10°C° 0 mm 1 mps 754 mmHg 73%
    06:00 +12°C° 0 mm 1 mps 754 mmHg 67%
    07:00 +14°C° 0 mm 1 mps 754 mmHg 61%
    08:00 +16°C° 0 mm 1 mps 754 mmHg 55%
    09:00 +19°C° 0 mm 1 mps 753 mmHg 48%
    10:00 +21°C° 0 mm 1 mps 753 mmHg 42%
    11:00 +20°C° 0 mm 0 mps 753 mmHg 39%
    12:00 +21°C° 0 mm 0 mps 753 mmHg 37%
    13:00 +22°C° 0 mm 0 mps 752 mmHg 34%
    14:00 +22°C° 0 mm 0 mps 752 mmHg 34%
    15:00 +24°C° 0 mm 1 mps 752 mmHg 35%
    16:00 +24°C° 0 mm 1 mps 751 mmHg 35%
    17:00 +22°C° 0 mm 1 mps 751 mmHg 43%
    18:00 +21°C° 0 mm 1 mps 751 mmHg 50%
    19:00 +19°C° 0 mm 1 mps 750 mmHg 58%
    20:00 +18°C° 0 mm 1 mps 750 mmHg 62%
    21:00 +15°C° 0 mm 1 mps 751 mmHg 66%
    22:00 +14°C° 0 mm 2 mps 751 mmHg 70%
    23:00 +14°C° 0 mm 2 mps 751 mmHg 74%

    Day after tomorrow, 25 May, Saturday

    Time Temperature Precipitation Wind Pressure Humidity
    00:00 +13°C° 0 mm 2 mps 751 mmHg 79%
    01:00 +13°C° 0 mm 2 mps 751 mmHg 83%
    02:00 +13°C° 0 mm 2 mps 751 mmHg 86%
    03:00 +13°C° 0 mm 2 mps 751 mmHg 90%
    04:00 +12°C° 0 mm 2 mps 751 mmHg 93%
    05:00 +13°C° 0 mm 3 mps 751 mmHg 88%
    06:00 +14°C° 0 mm 3 mps 751 mmHg 83%
    07:00 +16°C° 0 mm 3 mps 751 mmHg 79%
    08:00 +17°C° 0 mm 4 mps 751 mmHg 69%
    09:00 +18°C° 0 mm 4 mps 751 mmHg 60%
    10:00 +19°C° 0 mm 4 mps 752 mmHg 51%
    11:00 +20°C° 0 mm 4 mps 751 mmHg 48%
    12:00 +21°C° 0 mm 5 mps 751 mmHg 45%
    13:00 +22°C° 0 mm 5 mps 751 mmHg 42%
    14:00 +22°C° 0 mm 4 mps 751 mmHg 44%
    15:00 +22°C° 0 mm 4 mps 751 mmHg 45%
    16:00 +22°C° 0 mm 4 mps 751 mmHg 47%
    17:00 +20°C° 0 mm 3 mps 751 mmHg 53%
    18:00 +19°C° 0 mm 3 mps 751 mmHg 59%
    19:00 +18°C° 0 mm 2 mps 751 mmHg 65%
    20:00 +16°C° 0 mm 2 mps 751 mmHg 70%
    21:00 +15°C° 0 mm 2 mps 751 mmHg 76%
    22:00 +12°C° 0 mm 3 mps 751 mmHg 81%
    23:00 +11°C° 0 mm 3 mps 751 mmHg 85%

    26 May, Sunday

    Time Temperature Precipitation Wind Pressure Humidity
    00:00 +11°C° 0 mm 3 mps 751 mmHg 88%
    01:00 +10°C° 0 mm 3 mps 751 mmHg 92%
    02:00 +9°C° 0 mm 3 mps 751 mmHg 93%
    03:00 +9°C° 0 mm 3 mps 751 mmHg 95%
    04:00 +8°C° 0 mm 3 mps 751 mmHg 96%
    05:00 +9°C° 0 mm 3 mps 751 mmHg 88%
    06:00 +11°C° 0 mm 3 mps 751 mmHg 80%
    07:00 +12°C° 0 mm 4 mps 751 mmHg 72%
    08:00 +14°C° 0 mm 4 mps 751 mmHg 66%
    09:00 +15°C° 0 mm 4 mps 750 mmHg 61%
    10:00 +17°C° 0 mm 5 mps 750 mmHg 55%
    11:00 +17°C° 0.1 mm 5 mps 750 mmHg 54%
    12:00 +19°C° 0.1 mm 6 mps 750 mmHg 53%
    13:00 +20°C° 0.1 mm 6 mps 750 mmHg 52%
    14:00 +19°C° 0 mm 6 mps 749 mmHg 54%
    15:00 +19°C° 0 mm 5 mps 749 mmHg 55%
    16:00 +19°C° 0 mm 5 mps 749 mmHg 56%
    17:00 +18°C° 0 mm 4 mps 749 mmHg 60%
    18:00 +17°C° 0 mm 3 mps 749 mmHg 63%
    19:00 +17°C° 0 mm 3 mps 749 mmHg 67%
    20:00 +15°C° 0 mm 2 mps 749 mmHg 72%
    21:00 +14°C° 0 mm 2 mps 749 mmHg 78%
    22:00 +12°C° 0 mm 1 mps 750 mmHg 83%
    23:00 +13°C° 0 mm 1 mps 750 mmHg 82%

    27 May, Monday

    Time Temperature Precipitation Wind Pressure Humidity
    00:00 +13°C° 0 mm 2 mps 749 mmHg 82%
    01:00 +14°C° 0 mm 2 mps 749 mmHg 81%
    02:00 +13°C° 0 mm 2 mps 749 mmHg 84%
    03:00 +12°C° 0 mm 2 mps 749 mmHg 87%
    04:00 +12°C° 0 mm 2 mps 748 mmHg 90%
    05:00 +13°C° 0 mm 3 mps 748 mmHg 83%
    06:00 +14°C° 0 mm 3 mps 748 mmHg 76%
    07:00 +17°C° 0 mm 3 mps 748 mmHg 69%
    08:00 +19°C° 0 mm 4 mps 747 mmHg 63%
    09:00 +21°C° 0 mm 4 mps 747 mmHg 58%
    10:00 +23°C° 0 mm 4 mps 747 mmHg 53%
    11:00 +23°C° 0 mm 4 mps 746 mmHg 50%
    12:00 +25°C° 0 mm 5 mps 746 mmHg 48%
    13:00 +26°C° 0 mm 5 mps 745 mmHg 46%
    14:00 +26°C° 0.3 mm 4 mps 745 mmHg 49%
    15:00 +25°C° 0.3 mm 4 mps 745 mmHg 53%
    16:00 +25°C° 0.3 mm 3 mps 744 mmHg 57%
    17:00 +24°C° 0.6 mm 3 mps 744 mmHg 65%
    18:00 +21°C° 0.6 mm 2 mps 744 mmHg 73%
    19:00 +21°C° 0.6 mm 1 mps 744 mmHg 81%
    20:00 +19°C° 0.1 mm 1 mps 744 mmHg 84%
    21:00 +18°C° 0.1 mm 1 mps 744 mmHg 87%
    22:00 +16°C° 0.1 mm 1 mps 744 mmHg 89%
    23:00 +16°C° 0.1 mm 1 mps 744 mmHg 91%

    28 May, Tuesday

    Time Temperature Precipitation Wind Pressure Humidity
    00:00 +15°C° 0.1 mm 0 mps 743 mmHg 92%
    01:00 +14°C° 0.1 mm 0 mps 743 mmHg 93%
    02:00 +14°C° 0.8 mm 0 mps 743 mmHg 94%
    03:00 +14°C° 0.8 mm 0 mps 743 mmHg 95%
    04:00 +14°C° 0.8 mm 0 mps 743 mmHg 97%
    05:00 +15°C° 1.1 mm 1 mps 743 mmHg 96%
    06:00 +16°C° 1.1 mm 1 mps 743 mmHg 96%
    07:00 +16°C° 1.1 mm 1 mps 742 mmHg 96%
    08:00 +18°C° 0.7 mm 1 mps 743 mmHg 94%
    09:00 +18°C° 0.7 mm 1 mps 743 mmHg 92%
    10:00 +19°C° 0.7 mm 1 mps 743 mmHg 89%
    11:00 +20°C° 1.2 mm 1 mps 742 mmHg 86%
    12:00 +21°C° 1.2 mm 1 mps 742 mmHg 83%
    13:00 +22°C° 1.2 mm 1 mps 742 mmHg 80%
    14:00 +22°C° 1.5 mm 1 mps 742 mmHg 79%
    15:00 +22°C° 1.5 mm 1 mps 742 mmHg 78%
    16:00 +22°C° 1.5 mm 1 mps 742 mmHg 77%
    17:00 +21°C° 1.1 mm 1 mps 742 mmHg 81%
    18:00 +21°C° 1.1 mm 1 mps 742 mmHg 85%
    19:00 +20°C° 1.1 mm 1 mps 742 mmHg 89%
    20:00 +19°C° 0.9 mm 1 mps 742 mmHg 90%
    21:00 +17°C° 0.9 mm 2 mps 743 mmHg 92%
    22:00 +16°C° 0.9 mm 2 mps 743 mmHg 94%
    23:00 +16°C° 0.4 mm 2 mps 743 mmHg 95%
    Show more